This demonstration page uses our WeatherBlox Daily Observations layout. Learn more.

Left ArrowRight Arrow

47.50024, -111.30081

Hourly Observations for January 26, 2020

Temp ( °F °C ) Dew Point ( °F °C ) Humidity (%) Winds ( mph kmh ) Pressure ( in mb ) Visibility ( mi km ) Precip ( " mm )
12:53 am 00:53 Mostly Cloudy 27 -2.8 21 -6.1 78 78 SSW 7 11 30.06 1018 10 16 0.00 0.00
1:53 am 01:53 Cloudy 32 0 25 -3.9 75 75 SSW 9 15 30.06 1018 10 16 0.00 0.00
2:53 am 02:53 Cloudy 32 0 25 -3.9 75 75 Calm 30.06 1018 10 16 0.00 0.00
3:53 am 03:53 Cloudy 32 0 26 -3.3 79 79 WSW 5 7 30.06 1018 10 16 0.00 0.00
4:53 am 04:53 Cloudy 32 0 25 -3.9 75 75 WSW 3 6 30.09 1019 10 16 0.00 0.00
5:53 am 05:53 Cloudy 32 0 26 -3.3 79 79 SSW 6 9 30.10 1019 10 16 0.00 0.00
6:53 am 06:53 Cloudy 32 0 26 -3.3 79 79 Calm 30.10 1019 10 16 0.00 0.00
7:53 am 07:53 Clear 29 -1.7 23 -5 78 78 SE 5 7 30.11 1020 10 16 0.00 0.00
8:53 am 08:53 Sunny 31 -0.6 24 -4.4 76 76 SSE 3 6 30.10 1019 10 16 0.00 0.00
9:53 am 09:53 Sunny 38 3.3 28 -2.2 68 68 S 5 7 30.08 1019 10 16 0.00 0.00
10:53 am 10:53 Sunny 43 6.1 25 -3.9 49 49 SSW 9 15 30.06 1018 10 16 0.00 0.00
11:53 am 11:53 Sunny 45 7.2 23 -5 42 42 VRB 3 6 30.02 1017 10 16 0.00 0.00
12:53 pm 12:53 Sunny 47 8.3 22 -5.6 37 37 Calm 30.00 1016 10 16 0.00 0.00
1:53 pm 13:53 Sunny 48 8.9 21 -6.1 34 34 Calm 29.95 1014 10 16 0.00 0.00
2:53 pm 14:53 Sunny 50 10 20 -6.7 30 30 W 6 9 29.93 1014 10 16 0.00 0.00
3:53 pm 15:53 Cloudy 47 8.3 19 -7.2 33 33 SSW 6 9 29.93 1013 10 16 0.00 0.00
4:53 pm 16:53 Cloudy 43 6.1 20 -6.7 40 40 SSW 7 11 29.93 1014 10 16 0.00 0.00
5:53 pm 17:53 Cloudy 40 4.4 20 -6.7 45 45 SSW 8 13 29.95 1014 10 16 0.00 0.00
6:53 pm 18:53 Cloudy 42 5.6 23 -5 47 47 WSW 12 19 29.94 1014 10 16 0.00 0.00
7:53 pm 19:53 Mostly Cloudy 39 3.9 23 -5 53 53 S 10 17 29.96 1015 10 16 0.00 0.00
8:53 pm 20:53 Mostly Clear 37 2.8 26 -3.3 65 65 SSW 12 19 29.96 1015 10 16 0.00 0.00
9:53 pm 21:53 Partly Cloudy 39 3.9 27 -2.8 62 62 SSW 12 19 29.93 1014 10 16 0.00 0.00
10:53 pm 22:53 Cloudy 39 3.9 27 -2.8 62 62 SSW 13 20 29.92 1013 10 16 0.00 0.00
11:53 pm 23:53 Cloudy 38 3.3 27 -2.8 65 65 SW 9 15 29.93 1014 10 16 0.00 0.00

Powered by AerisWeather